Location: Assche-ter-Heiden
(50.9174°N, 4.1574°E)
Time: 00:36:53
(UTC+00:00)

Cosmos 2218 Rocket - Pass Details

Date: 20 January 2020
Orbit: 955 x 1006 km, 82.9° (Epoch: 28 February)

Event Time Altitude Azimuth Distance (km) Brightness Sun altitude
Rises 06:03:26 0° 348° (NNW) 3,750 6.8 -14.2°
Reaches altitude 10° 06:06:00 10° 345° (NNW) 2,794 6.1 -13.8°
Maximum altitude 06:12:19 62° 267° (W) 1,119 4.1 -12.8°
Drops below altitude 10° 06:18:33 10° 188° (S) 2,755 6.5 -11.9°
Sets 06:21:05 0° 185° (S) 3,694 7.2 -11.5°
